METEOR 2-5 DEB, 38274

Orbit data source: Space-Track

METEOR 2-5 DEB, 38274 is space debris in LEO originally from a launch on Wed, 31 Oct 1979 UTC launched from the Plesetsk Missile And Space Complex (PKMTR). Debris objects in space refer to the collection of defunct objects orbiting the Earth. Examples of debris include non-operational satellites, rocket bodies, and fragments generated from explosions, collisions, or faulty payload assembly.

Loading next visibility...
Identifier
38274, 1979-095BU
Orbit
LEO
Country
Flag of CISCIS
Related business
Manufacturer
Unknown
Mission
Spacecraft
Bus & Motor
Unknown
Mass
Unknown
Launch date (UTC)
1979-10-31 (46 years ago)
Launch vehicle
Unknown
Launch site
Plesetsk Missile And Space Complex (PKMTR)
Object type
Payload
Rocket body
Debris
Shape & HBR
Unknown shape, 0.1 m
Radar Cross Section
Small (<0.1 m²)

Expand to show TLE details & history
Last TLE update: 2 weeks ago

TLE from 2 weeks ago
0 METEOR 2-5 DEB
1 38274U 79095BU  25277.99811567  .00012079  00000-0  35503-2 0  9990
2 38274  81.1939  12.1136 0012641 355.5265   4.5809 14.43636442575613
Epoch: 2025-10-04T23:57Z
TLE epoch observation values (Epoch: 2025-10-04T23:57:17.193Z)
Latitude
-0.00005°
Longitude
-1.13008°
Altitude
740.473 km
Speed
7.489 km/s
True Right ascension
00h 48m 27s
True Declination
0° 00' 00"
Sunlit
Object was in full shadow at epoch
Visualization orbit readout
Latitude
Unknown
Longitude
Unknown
Altitude
Unknown
Speed
Unknown
Apparent Right ascension
Unknown
Apparent Declination
Unknown
Sunlit
N/A
Visualization observer readout
Local Sidereal Time
08:38:24
Azimuth
Unknown
Elevation
Unknown
Doppler factor
Unknown
Orbital elements
Apogee altitude
752.643 km
Perigee altitude
734.638 km
Semi-major axis
7,121.778 km
Eccentricity
0.00126
Inclination
81.1939°
RAAN
12.1136°
Arg. of periapsis
355.5265°
True anomaly
4.59249°
Mean anomaly
4.5809°
Eccentric anomaly
4.58669°
Mean motion
3.61127 °/min
Orbital period
99.69 mins
BSTAR
0.0035503
Loading maneuver chart data...
Computing Atmospheric mass density...

Documentation

Showing up to 5 results
|